パンスターズ彗星

C/2015 O1 ( PanSTARRS )

English version
Home page
Updated on October 22, 2018

---------------------------------------------------------------------

・ プロフィール

発見日 2015年7月19日
発見光度 19.6等
発見者 Pan-STARRS 1 telescope (Haleakala)

・ 写真集

・ 軌道要素

Epoch 2018 Feb. 11.0 TT = JDT 2458160.5
T 2018 Feb. 19.04896 TT                                 MPCW
q   3.7295515            (2000.0)            P               Q
z  -0.0000117      Peri.   89.59814     -0.52098692     -0.50148252
 +/-0.0000004      Node   299.85562     -0.59857450     +0.79153746
e   1.0000435      Incl.  127.21104     +0.60850735     +0.34926169
From 1842 observations 2015 June 15-2018 Mar. 28, mean residual 0".5.

・ 星図

・ 光度変化

        m1 = 4.0 + 5 logΔ + 11.0 log r

---------------------------------------------------------------------

軌道要素はM.P.E.C. 2018-F152に掲載されたものです。
星図はステラナビゲータ Ver.8 (アストロアーツ) で作成したものです。
光度グラフはComet for Windowsで作成したものです。

---------------------------------------------------------------------

Copyright(C) Seiichi Yoshida (comet@aerith.net). All rights reserved.